Weather in Voloye

Russia / Kaluga Oblast     54˚08′30″N   34˚34′10″E
temp.,
°C
wind,
m/s
gust,
m/s
humid.,
%
clouds,
%
prec.,
mm/h
press.,
hPa
HPBL,
m
16 january, sat
sat1600:00−17˚nne3696100 0.3 1010188
03:00−17˚nne369697 0.4 1010173
06:00−16˚nne3696100 0.4 1009226
09:00−17˚n3496100 0.7 1010133
12:00−15˚nnw3594100 0.1 1010239
15:00−15˚nw4695100 0.1 1011299
18:00−16˚wnw4895100 0.4 1010296
21:00−16˚wnw4896100 0.8 1011367
17 january, sun
sun1700:00−15˚nw4896100 0.8 1012425
03:00−15˚nw4894100 1.4 1013449
06:00−18˚nnw3696100 0.0 1013185
09:00−19˚nnw3496100 0.0 1015123
12:00−19˚n349494 0.0 1016224
15:00−19˚n239549 0.0 1017106
18:00−23˚n23970 0.0 101822
21:00−24˚nne23989 0.0 101925
18 january, mon
mon1800:00−25˚ne229946 0.0 101920
03:00−26˚ne129941 0.0 102020
06:00−25˚ene119876 0.0 102020
09:00−24˚n229684 0.0 102020
12:00−21˚sse0093100 0.0 102193
15:00−20˚nw119595 0.0 101936
18:00−22˚w1194100 0.0 101920
21:00−22˚w1195100 0.0 102020
19 january, tue
tue1900:00−23˚w119673 0.0 101920
03:00−22˚wnw229685 0.0 101920
06:00−21˚wnw1299100 0.0 101920
09:00−21˚wnw229999 0.0 101920
12:00−18˚w129698 0.0 101986
15:00−16˚w229692 0.0 101955
18:00−18˚w229869 0.0 101920
21:00−19˚w229951 0.0 102120
20 january, wed
wed2000:00−19˚w229951 0.0 102120
03:00−19˚wsw229946 0.0 102220
06:00−19˚sw229943 0.0 102220
09:00−19˚ssw239951 0.0 102320
12:00−15˚ssw359652 0.0 1023164
15:00−12˚s369556 0.0 1021187
18:00−14˚s489662 0.0 1021148
21:00−14˚s5119666 0.0 1020256